Home > Weather > Hollywood > Past weeks

Flag for USA Weather for the Past 2 Weeks in Hollywood, California, USA

Now
57 °F

Clear.


Feels Like: 57 °F
Forecast: 55 / 75 °F
Wind: No wind

Location: Bob Hope Airport

Current Time: May 2, 2016 at 4:36:50 AM

Latest Report: May 2, 2016 at 3:53 AM


Visibility: 10 mi

Pressure: 29.96 "Hg

Humidity: 81%

Dew Point: 51 °F

Location of HollywoodLocation

Historic Weather in Hollywood — Graph

°F

Hollywood Temperature Yesterday

Maximum temperature yesterday: 71 °F (at 1:53 PM)
Minimum temperature yesterday: 54 °F (at 4:53 AM)
Average temperature yesterday: 62 °F

High & Low Weather Summary for the Past Weeks

 TemperatureHumidityPressure
High88 °F (Apr 18, 2:53 PM)83% (Apr 30, 3:53 AM)30.04 "Hg (Apr 30, 3:53 AM)
Low47 °F (Apr 26, 5:53 AM)7% (Apr 19, 4:53 PM)29.70 "Hg (Apr 27, 7:53 PM)
Average65 °F45%29.88 "Hg
* Reported Apr 17 2:53 AM — May 2 2:53 AM, Hollywood, Weather by CustomWeather, © 2016

Note: Actual official high and low records may vary slightly from our data, if they occured in-between our weather recording intervals... More about our weather records

Advertising

Hollywood Weather History for the Previous 24 Hours

Scroll right to see more
 ConditionsComfort  
Time TempWeatherWind HumidityBarometerVisibility
2:53 AM
Mon, May 2
57 °FClear.No wind81%29.96 "Hg10 mi
1:53 AM57 °FOvercast.No wind81%29.96 "Hg10 mi
12:53 AM58 °FClear.No wind78%29.97 "Hg10 mi
11:53 PM
Sun, May 1
57 °FPassing clouds.5 mph81%29.98 "Hg10 mi
10:53 PM58 °FPassing clouds.5 mph78%29.96 "Hg10 mi
9:53 PM59 °FPassing clouds.3 mph75%29.96 "Hg10 mi
8:53 PM59 °FClear.7 mph75%29.94 "Hg10 mi
7:53 PM61 °FSunny.7 mph70%29.90 "Hg10 mi
6:53 PM64 °FSunny.9 mph63%29.87 "Hg10 mi
5:53 PM68 °FSunny.12 mph53%29.87 "Hg10 mi
4:53 PM71 °FSunny.9 mph49%29.87 "Hg10 mi
3:53 PM71 °FSunny.9 mph49%29.86 "Hg10 mi
2:53 PM70 °FSunny.12 mph53%29.87 "Hg10 mi
1:53 PM71 °FSunny.9 mph51%29.87 "Hg10 mi
12:53 PM70 °FSunny.8 mph46%29.87 "Hg10 mi
11:53 AM67 °FSunny.6 mph53%29.88 "Hg10 mi
10:53 AM65 °FSunny.3 mph54%29.89 "Hg10 mi
9:53 AM62 °FSunny.6 mph60%29.89 "Hg10 mi
8:53 AM59 °FScattered clouds.No wind69%29.89 "Hg10 mi
7:53 AM57 °FPartly sunny.5 mph78%29.88 "Hg10 mi
6:53 AM56 °FOvercast.5 mph81%29.85 "Hg10 mi
5:53 AM55 °FOvercast.No wind74%29.83 "Hg10 mi
4:53 AM54 °FLow clouds.No wind74%29.83 "Hg10 mi
Weather by CustomWeather, © 2016

See weather overviewHow to use our weather pages